Location: Atherton
(17.2661°S, 145.4859°E)
Time: 11:51:54
(UTC+10:00)

Vanguard 1 - Pass Details

Date: 03 July 2025
Orbit: 649 x 3822 km, 34.2° (Epoch: 05 July)

Event Time Altitude Azimuth Distance (km) Brightness Sun altitude
Rises 11:31:55 0° 349° (N) 6,551 14.8 47.9°
Reaches altitude 10° 11:38:50 10° 8° (N) 6,099 15.0 48.4°
Maximum altitude 11:50:26 17° 43° (NE) 6,077 15.0 49.0°
Drops below altitude 10° 12:03:12 10° 77° (ENE) 6,919 14.7 49.5°
Sets 12:11:43 0° 94° (E) 7,790 14.7 49.7°
